[[{"header":{"parameterUnit":"m.s-1","parameterCategory":2,"la1":30.2991,"la2":30.254,"lo1":-89.0895,"lo2":-89.0444,"dy":0.0017,"dx":0.0017,"nx":28,"ny":28,"refTime":"2024-08-22T03:00:00:Z","depth":"0","parameterNumber":2,"parameterNumberName":"U-component_of_CURRENTS"},"data":[0,0,0,0,0,0,0,0,0,0,0,0,0,0,0,0,0,0,0,0,0,0,0,0,0,0,0,0,0,0,0,0,0,0,0,0,0,0,0,0,0,0,0,0,0,0,0,0,0,0,0,0,0,0,0,0,0,0,-0.2282,-0.2282,0,-0.2282,-0.2281,-0.2281,-0.2226,-0.2225,-0.2224,-0.2223,-0.2059,-0.2056,-0.2053,0,0,0,0,0,0,0,0,0,0,0,0,0,-0.2222,-0.2223,-0.2281,-0.2282,-0.2282,-0.2282,-0.2281,-0.2281,-0.2226,-0.2225,-0.2224,-0.2222,-0.2061,-0.2057,-0.2053,0,0,0,0,0,0,0,0,0,0,0,0,0,-0.2233,-0.2224,-0.2281,-0.2258,-0.2257,-0.2282,-0.2281,-0.2281,-0.2226,-0.2225,-0.2223,-0.2222,-0.2062,-0.2057,-0.2052,-0.2051,0,0,-0.2036,-0.2034,0,0,0,0,0,0,0,0,-0.2233,-0.2235,-0.2261,-0.226,-0.2258,-0.2256,-0.2201,-0.2197,-0.2227,-0.2233,-0.2223,-0.2221,-0.2114,-0.2105,-0.2104,-0.2044,-0.2037,-0.2036,-0.2033,-0.2031,-0.2029,0,0,0,0,0,0,0,-0.2232,-0.2235,-0.2277,-0.2262,-0.226,-0.2244,-0.2244,-0.22,-0.2176,-0.2232,-0.223,-0.2237,-0.2111,-0.2109,-0.2099,-0.2034,-0.2036,-0.2032,-0.2028,-0.2026,-0.1929,-0.1929,0,0,0,0,0,0,-0.2244,-0.2234,-0.2277,-0.2277,-0.2247,-0.2247,-0.2246,-0.2255,-0.218,-0.2169,-0.2239,-0.2235,-0.2119,-0.2105,-0.2093,-0.2067,-0.2031,-0.2026,-0.2023,-0.1928,-0.1929,-0.1929,0,0,0,0,0,0,-0.2243,-0.2248,-0.2277,-0.2259,-0.2262,-0.225,-0.226,-0.2256,-0.225,-0.2187,-0.2172,-0.2238,-0.2117,-0.21,-0.2066,-0.2061,-0.2024,-0.2019,-0.1928,-0.1928,-0.1929,-0.2027,0,0,0,0,0,0,-0.2241,-0.2247,-0.2253,-0.226,-0.2264,-0.2291,-0.2262,-0.2257,-0.226,-0.2255,-0.2182,-0.2165,-0.2114,-0.2074,-0.2061,-0.2053,-0.2015,-0.1927,-0.1928,-0.1929,-0.2023,-0.2031,-0.2038,0,0,0,0,0,-0.2239,-0.2252,-0.2253,-0.2258,-0.2273,-0.2292,-0.2292,-0.2275,-0.2262,-0.2263,-0.2224,-0.2167,-0.2069,-0.2071,-0.2055,-0.2046,-0.1927,-0.1928,-0.1929,-0.202,-0.203,-0.2038,0,0,0,0,0,0,-0.2233,-0.2249,-0.2249,-0.2268,-0.2281,-0.2284,-0.2287,-0.2283,-0.2258,-0.2246,-0.2183,-0.2165,-0.2128,-0.2081,-0.2085,-0.202,-0.1984,-0.1982,-0.2059,-0.2067,-0.2074,-0.2102,-0.2011,0,0,0,0,0,-0.2237,-0.2242,-0.2265,-0.2277,-0.2289,-0.2292,-0.2297,-0.229,-0.2276,-0.2264,-0.2216,-0.2163,-0.2123,-0.2092,-0.2045,-0.2018,-0.1992,-0.1997,-0.2005,-0.2011,-0.2024,-0.1996,-0.2002,-0.1933,-0.1933,-0.1933,0,0,-0.2239,-0.2247,-0.2251,-0.2275,-0.2282,-0.2308,-0.2289,-0.2302,-0.2314,-0.2248,-0.2233,-0.2186,-0.2123,-0.2092,-0.2069,-0.2049,-0.202,-0.2013,-0.2019,-0.2028,-0.1998,-0.2005,-0.2011,-0.1933,-0.1933,-0.1933,0,0,-0.224,-0.2256,-0.226,-0.2284,-0.2305,-0.2314,-0.2324,-0.2331,-0.2323,-0.2319,-0.227,-0.2239,-0.217,-0.2133,-0.2105,-0.2126,-0.2062,-0.2092,-0.2146,-0.212,-0.2125,-0.213,-0.2122,-0.2126,-0.2092,-0.2092,-0.2092,0,-0.2244,-0.2254,-0.2265,-0.229,-0.2314,-0.2323,-0.235,-0.2356,-0.2347,-0.234,-0.232,-0.2248,-0.2196,-0.2169,-0.2177,-0.2142,-0.2121,-0.2121,-0.2131,-0.2135,-0.2138,-0.2129,-0.2131,-0.2097,-0.2097,-0.2096,-0.2096,0,-0.2248,-0.2272,-0.2284,-0.2316,-0.2345,-0.237,-0.2399,-0.2405,-0.2399,-0.2395,-0.237,-0.2321,-0.2274,-0.2252,-0.2223,-0.2213,-0.2189,-0.2149,-0.2115,-0.2152,-0.2139,-0.214,-0.2104,-0.2102,-0.2101,-0.21,0,0,-0.2223,-0.2275,-0.2278,-0.2295,-0.2364,-0.2376,-0.2423,-0.2447,-0.2441,-0.2443,-0.2431,-0.2402,-0.2371,-0.234,-0.2292,-0.2279,-0.2293,-0.2232,-0.2228,-0.2236,-0.2246,-0.2274,-0.2277,-0.2249,-0.2249,-0.2249,-0.2234,0,-0.2223,-0.2243,-0.2291,-0.2332,-0.2352,-0.2409,-0.244,-0.2466,-0.2466,-0.2451,-0.2439,-0.2393,-0.2404,-0.2358,-0.2367,-0.2287,-0.2296,-0.2302,-0.2199,-0.2197,-0.2226,-0.2279,-0.2088,-0.2062,-0.2235,-0.2235,-0.2235,0,-0.2211,-0.2224,-0.2246,-0.2314,-0.2331,-0.2362,-0.2397,-0.2427,-0.2443,-0.2436,-0.2442,-0.2414,-0.2409,-0.239,-0.2364,-0.2362,-0.233,-0.2291,-0.2288,-0.2281,-0.2226,-0.2048,-0.2056,-0.2016,-0.2235,-0.2235,-0.2235,0,-0.2131,-0.2202,-0.22,-0.2228,-0.2302,-0.2322,-0.2364,-0.2402,-0.2403,-0.2406,-0.2392,-0.2404,-0.2375,-0.2361,-0.235,-0.2329,-0.232,-0.2261,-0.2274,-0.2275,-0.2078,-0.2062,-0.2043,-0.2258,-0.2258,-0.2258,-0.2259,0,-0.2102,-0.2114,-0.2151,-0.2148,-0.2148,-0.2245,-0.2237,-0.228,-0.2314,-0.2327,-0.2361,-0.2372,-0.2364,-0.2376,-0.2355,-0.2352,-0.2333,-0.2308,-0.228,-0.211,-0.2098,-0.2026,-0.204,-0.2258,-0.2258,-0.2258,-0.2258,0,-0.202,-0.2047,-0.2039,-0.2087,-0.2099,-0.2089,-0.2153,-0.2164,-0.2209,-0.2229,-0.223,-0.2316,-0.2356,-0.2377,-0.2348,-0.2348,-0.2274,-0.233,-0.216,-0.2115,-0.2079,-0.2105,-0.2091,-0.2041,-0.2309,-0.2309,-0.231,0,-0.1983,-0.1958,-0.1947,-0.193,-0.1951,-0.1958,-0.1985,-0.207,-0.2109,-0.2217,-0.2242,-0.23,-0.2357,-0.2369,-0.2331,-0.2307,-0.2304,-0.2163,-0.21,-0.2086,-0.2091,-0.2107,-0.2065,-0.1864,-0.1861,-0.1859,-0.1857,0,-0.1906,-0.1876,-0.1854,-0.1806,-0.1812,-0.1832,-0.1898,-0.1909,-0.2052,-0.2086,-0.2209,-0.2253,-0.2298,-0.221,-0.221,-0.2178,-0.2076,-0.2115,-0.2097,-0.1772,-0.1781,-0.1713,-0.1898,-0.1834,-0.1836,-0.1838,-0.1839,-0.184,-0.1831,-0.1777,-0.1726,-0.1684,-0.1699,-0.1742,-0.1729,-0.1832,-0.188,-0.1933,-0.2073,-0.2068,-0.2037,-0.1993,-0.1994,-0.1874,-0.1955,-0.1765,-0.1806,-0.1832,-0.177,-0.1965,-0.1886,-0.1888,-0.1891,-0.1892,-0.1894,0,-0.1743,-0.169,-0.1636,-0.1589,-0.1585,-0.1629,-0.17,-0.1681,-0.1719,-0.1762,-0.1788,-0.1736,-0.1637,-0.1658,-0.1575,-0.1526,-0.1466,-0.1518,-0.142,-0.1398,-0.1518,-0.1483,-0.1316,-0.1316,-0.1316,-0.1316,-0.1316,-0.1316,-0.1695,-0.1599,-0.156,-0.149,-0.1479,-0.1462,-0.148,-0.1457,-0.1455,-0.1394,-0.1355,-0.1357,-0.14,-0.1463,-0.138,-0.1323,-0.1297,-0.1252,-0.1371,-0.1372,-0.1395,-0.1417,-0.1385,-0.12,-0.12,-0.1097,-0.1096,-0.1096]},{"header":{"parameterUnit":"m.s-1","parameterCategory":2,"la1":30.2991,"la2":30.254,"lo1":-89.0895,"lo2":-89.0444,"dy":0.0017,"dx":0.0017,"nx":28,"ny":28,"refTime":"2024-08-22T03:00:00:Z","depth":"0","parameterNumber":3,"parameterNumberName":"V-component_of_CURRENTS"},"data":[0,0,0,0,0,0,0,0,0,0,0,0,0,0,0,0,0,0,0,0,0,0,0,0,0,0,0,0,0,0,0,0,0,0,0,0,0,0,0,0,0,0,0,0,0,0,0,0,0,0,0,0,0,0,0,0,0,0,-0.1282,-0.128,0,-0.114,-0.1139,-0.1137,-0.1109,-0.111,-0.1111,-0.1112,-0.0922,-0.0916,-0.091,0,0,0,0,0,0,0,0,0,0,0,0,0,-0.1393,-0.1392,-0.1282,-0.128,-0.1278,-0.114,-0.1139,-0.1137,-0.1109,-0.111,-0.1111,-0.1112,-0.0924,-0.0917,-0.091,0,0,0,0,0,0,0,0,0,0,0,0,0,-0.1309,-0.1392,-0.1282,-0.1246,-0.1241,-0.1141,-0.1139,-0.1136,-0.1109,-0.111,-0.1112,-0.1113,-0.0926,-0.0917,-0.0909,-0.0826,0,0,-0.0881,-0.0878,0,0,0,0,0,0,0,0,-0.1314,-0.1306,-0.1253,-0.1248,-0.1243,-0.1142,-0.1108,-0.1029,-0.1108,-0.1161,-0.1112,-0.1114,-0.0989,-0.0975,-0.0948,-0.0817,-0.0809,-0.0881,-0.0875,-0.0871,-0.0869,0,0,0,0,0,0,0,-0.132,-0.1311,-0.1228,-0.1251,-0.1245,-0.119,-0.1182,-0.1093,-0.1069,-0.1157,-0.1154,-0.1135,-0.0986,-0.0957,-0.0943,-0.0806,-0.0881,-0.0873,-0.0867,-0.0864,-0.0605,-0.0603,0,0,0,0,0,0,-0.1339,-0.1317,-0.1232,-0.1223,-0.1281,-0.1188,-0.1178,-0.1175,-0.1071,-0.1057,-0.1133,-0.1134,-0.0972,-0.0954,-0.0937,-0.0838,-0.0871,-0.0863,-0.0858,-0.0606,-0.0605,-0.0603,0,0,0,0,0,0,-0.1343,-0.1334,-0.1238,-0.1264,-0.1248,-0.1185,-0.1181,-0.1171,-0.1144,-0.1054,-0.1039,-0.1118,-0.0972,-0.0949,-0.0854,-0.083,-0.0859,-0.0851,-0.0608,-0.0606,-0.0604,-0.0636,0,0,0,0,0,0,-0.1347,-0.1336,-0.1338,-0.1266,-0.1247,-0.1173,-0.1179,-0.1167,-0.1129,-0.1128,-0.1034,-0.1019,-0.0971,-0.0867,-0.0845,-0.0818,-0.0844,-0.061,-0.0607,-0.0604,-0.0637,-0.0635,-0.0633,0,0,0,0,0,-0.1351,-0.135,-0.1339,-0.1328,-0.1253,-0.1171,-0.1156,-0.1117,-0.1127,-0.1102,-0.1045,-0.1022,-0.0834,-0.0858,-0.0832,-0.0803,-0.0612,-0.0608,-0.0605,-0.0638,-0.0635,-0.0633,0,0,0,0,0,0,-0.1399,-0.1345,-0.1332,-0.1315,-0.1245,-0.1166,-0.114,-0.1115,-0.105,-0.1055,-0.0988,-0.0965,-0.0873,-0.0828,-0.0857,-0.072,-0.0723,-0.0714,-0.0757,-0.0754,-0.0752,-0.0753,-0.0837,0,0,0,0,0,-0.141,-0.1398,-0.1323,-0.1307,-0.1276,-0.1209,-0.1173,-0.1142,-0.1075,-0.1051,-0.0983,-0.0913,-0.0834,-0.0791,-0.0711,-0.0626,-0.0593,-0.0594,-0.0593,-0.0592,-0.0574,-0.0514,-0.0506,-0.0591,-0.0591,-0.0592,0,0,-0.1428,-0.1391,-0.1388,-0.1316,-0.1265,-0.1207,-0.1192,-0.1134,-0.1084,-0.1035,-0.0952,-0.0893,-0.0808,-0.072,-0.0676,-0.0683,-0.0551,-0.0587,-0.0587,-0.0569,-0.0509,-0.0501,-0.0494,-0.0589,-0.059,-0.059,0,0,-0.1437,-0.142,-0.1402,-0.1341,-0.1258,-0.1209,-0.1194,-0.1107,-0.1069,-0.0978,-0.0936,-0.0864,-0.0743,-0.0679,-0.0634,-0.0568,-0.054,-0.0552,-0.0544,-0.0487,-0.048,-0.0473,-0.0436,-0.0425,-0.0558,-0.0558,-0.0558,0,-0.1457,-0.1424,-0.1379,-0.1326,-0.1276,-0.1214,-0.1163,-0.1102,-0.0995,-0.095,-0.0956,-0.0782,-0.072,-0.0609,-0.0597,-0.0563,-0.0538,-0.0565,-0.0487,-0.0479,-0.0472,-0.0435,-0.0423,-0.0559,-0.0559,-0.0559,-0.0559,0,-0.1441,-0.1401,-0.1379,-0.1301,-0.124,-0.1185,-0.1094,-0.1032,-0.0991,-0.0929,-0.0816,-0.0735,-0.0638,-0.0613,-0.0582,-0.0493,-0.0495,-0.0492,-0.0501,-0.0466,-0.0428,-0.0416,-0.056,-0.056,-0.056,-0.0559,0,0,-0.1502,-0.1395,-0.1382,-0.1328,-0.1222,-0.1162,-0.1081,-0.0973,-0.0917,-0.083,-0.0754,-0.0634,-0.0607,-0.0553,-0.051,-0.0464,-0.0402,-0.0464,-0.046,-0.0442,-0.0291,-0.0211,-0.0189,-0.0397,-0.0394,-0.0392,-0.0293,0,-0.1493,-0.1414,-0.1354,-0.1256,-0.1199,-0.111,-0.103,-0.093,-0.0858,-0.0768,-0.0687,-0.0599,-0.058,-0.0546,-0.0491,-0.0417,-0.0366,-0.0429,-0.0312,-0.0308,-0.0254,-0.017,-0.0153,-0.0055,-0.028,-0.0278,-0.0277,0,-0.1482,-0.1425,-0.1353,-0.1215,-0.1181,-0.112,-0.0988,-0.0902,-0.0773,-0.0721,-0.0636,-0.0579,-0.0477,-0.0487,-0.034,-0.0388,-0.0333,-0.0289,-0.0284,-0.0182,-0.0202,-0.012,-0.0023,0.0085,-0.0257,-0.0258,-0.026,0,-0.1528,-0.1407,-0.1356,-0.131,-0.1163,-0.1109,-0.1027,-0.0897,-0.0822,-0.0701,-0.0662,-0.0533,-0.048,-0.0385,-0.0286,-0.0316,-0.0142,-0.0173,-0.0044,-0.004,0.0017,0.0024,0.0227,-0.0061,-0.0061,-0.0062,-0.0062,0,-0.1527,-0.1467,-0.1376,-0.1332,-0.1251,-0.1137,-0.1038,-0.0944,-0.0826,-0.0751,-0.0651,-0.0587,-0.0456,-0.0347,-0.0266,-0.0097,-0.0118,-0.0006,0.0013,0.0007,0.0011,0.0142,0.0178,-0.0058,-0.0059,-0.006,-0.006,0,-0.1558,-0.1508,-0.1427,-0.1304,-0.1268,-0.1207,-0.106,-0.0993,-0.0881,-0.0793,-0.0763,-0.0614,-0.0457,-0.0313,-0.0148,-0.0062,0.0169,0.014,0.0122,0.0139,0.0367,0.0399,0.0645,0.0727,0.0305,0.0308,0.031,0,-0.1558,-0.1532,-0.1432,-0.1406,-0.1352,-0.1254,-0.1193,-0.1046,-0.0984,-0.0814,-0.0788,-0.0609,-0.0473,-0.0173,0.0028,0.0237,0.0299,0.0365,0.0337,0.043,0.0478,0.0491,0.0541,0.038,0.0383,0.0385,0.0387,0,-0.1548,-0.1535,-0.1478,-0.1448,-0.1399,-0.1322,-0.1229,-0.1191,-0.1031,-0.0944,-0.0807,-0.068,-0.0358,-0.0074,0.0229,0.0335,0.0471,0.0421,0.0528,0.0594,0.0612,0.068,0.024,0.0407,0.0405,0.0404,0.0403,0.0402,-0.1549,-0.1536,-0.1501,-0.1465,-0.143,-0.1397,-0.1338,-0.1248,-0.1143,-0.0982,-0.0853,-0.0618,-0.0193,0.0262,0.0405,0.0714,0.0672,0.0766,0.0804,0.0813,0.09,0.0518,0.0704,0.0704,0.0703,0.0703,0.0703,0,-0.1544,-0.1539,-0.1516,-0.1483,-0.148,-0.1441,-0.1362,-0.1292,-0.119,-0.0997,-0.0823,-0.0336,0.0077,0.0455,0.0909,0.1065,0.1076,0.1129,0.113,0.1169,0.084,0.085,0.1065,0.1065,0.1065,0.1065,0.1065,0.1065,-0.1546,-0.1537,-0.1533,-0.1536,-0.1525,-0.1499,-0.1462,-0.1331,-0.1169,-0.0839,-0.0538,-0.0293,0.0253,0.0964,0.1353,0.1373,0.1494,0.1486,0.1573,0.1305,0.1272,0.124,0.1261,0.1559,0.1559,0.1868,0.1871,0.1873]}],[{"header":{"parameterUnit":"m.s-1","parameterCategory":2,"la1":30.2991,"la2":30.254,"lo1":-89.0895,"lo2":-89.0444,"dy":0.0017,"dx":0.0017,"nx":28,"ny":28,"refTime":"2024-08-22T03:00:00:Z","depth":"2","parameterNumber":2,"parameterNumberName":"U-component_of_CURRENTS"},"data":[0,0,0,0,0,0,0,0,0,0,0,0,0,0,0,0,0,0,0,0,0,0,0,0,0,0,0,0,0,0,0,0,0,0,0,0,0,0,0,0,0,0,0,0,0,0,0,0,0,0,0,0,0,0,0,0,0,0,-0.1986,-0.1986,0,-0.1959,-0.1958,-0.1957,-0.1903,-0.1903,-0.1903,-0.1903,-0.1784,-0.1781,-0.1778,0,0,0,0,0,0,0,0,0,0,0,0,0,-0.1813,-0.1816,-0.1986,-0.1986,-0.1987,-0.1959,-0.1958,-0.1957,-0.1903,-0.1903,-0.1903,-0.1903,-0.1785,-0.1781,-0.1777,0,0,0,0,0,0,0,0,0,0,0,0,0,-0.1837,-0.1818,-0.1986,-0.1965,-0.1964,-0.196,-0.1958,-0.1956,-0.1903,-0.1903,-0.1903,-0.1903,-0.1786,-0.1781,-0.1777,-0.1749,0,0,-0.1763,-0.1761,0,0,0,0,0,0,0,0,-0.1836,-0.1842,-0.1968,-0.1967,-0.1965,-0.1944,-0.1854,-0.1886,-0.1903,-0.1914,-0.1903,-0.1902,-0.1836,-0.1827,-0.1808,-0.1744,-0.1739,-0.1762,-0.1759,-0.1757,-0.1756,0,0,0,0,0,0,0,-0.1835,-0.1842,-0.1964,-0.1969,-0.1967,-0.1898,-0.1901,-0.1859,-0.1865,-0.1913,-0.1912,-0.1927,-0.1833,-0.1813,-0.1805,-0.1737,-0.1762,-0.1758,-0.1755,-0.1753,-0.1698,-0.17,0,0,0,0,0,0,-0.1871,-0.1842,-0.1965,-0.1964,-0.1912,-0.1902,-0.1906,-0.1942,-0.1868,-0.1861,-0.1927,-0.1925,-0.1821,-0.181,-0.18,-0.1802,-0.1757,-0.1753,-0.175,-0.1697,-0.1699,-0.17,0,0,0,0,0,0,-0.1867,-0.1883,-0.1966,-0.1909,-0.1917,-0.1908,-0.1947,-0.1942,-0.1941,-0.1882,-0.187,-0.1936,-0.182,-0.1807,-0.1781,-0.1795,-0.1751,-0.1747,-0.1695,-0.1698,-0.1699,-0.178,0,0,0,0,0,0,-0.1863,-0.1882,-0.1913,-0.1913,-0.1922,-0.1989,-0.1948,-0.1942,-0.1955,-0.1951,-0.1885,-0.1873,-0.1819,-0.1789,-0.1777,-0.1788,-0.1743,-0.1694,-0.1696,-0.1699,-0.1776,-0.1785,-0.1792,0,0,0,0,0,-0.1857,-0.1911,-0.1915,-0.193,-0.1968,-0.1991,-0.1988,-0.1971,-0.1956,-0.1966,-0.1919,-0.1876,-0.1797,-0.1786,-0.1772,-0.1782,-0.1693,-0.1696,-0.1699,-0.1772,-0.1783,-0.1792,0,0,0,0,0,0,-0.185,-0.1912,-0.1915,-0.1986,-0.1999,-0.1987,-0.2002,-0.1989,-0.1959,-0.1952,-0.1885,-0.187,-0.185,-0.1814,-0.1804,-0.1777,-0.1741,-0.1741,-0.1802,-0.1811,-0.1819,-0.1819,-0.1739,0,0,0,0,0,-0.1868,-0.1926,-0.1957,-0.2011,-0.2026,-0.2015,-0.2021,-0.2013,-0.1994,-0.1981,-0.1936,-0.1889,-0.1848,-0.1831,-0.1786,-0.1772,-0.1754,-0.1774,-0.1782,-0.1789,-0.1782,-0.1762,-0.1768,-0.171,-0.171,-0.171,0,0,-0.1878,-0.1923,-0.1953,-0.2013,-0.2018,-0.2041,-0.2016,-0.2042,-0.2047,-0.1972,-0.1958,-0.1912,-0.1851,-0.1829,-0.1818,-0.1803,-0.1808,-0.1793,-0.1799,-0.1788,-0.1766,-0.1771,-0.1776,-0.1712,-0.1712,-0.1711,0,0,-0.1925,-0.1972,-0.2027,-0.2047,-0.2083,-0.2075,-0.2094,-0.2094,-0.2081,-0.207,-0.2013,-0.1981,-0.1927,-0.1881,-0.1851,-0.1882,-0.1848,-0.1881,-0.1921,-0.1904,-0.1908,-0.1911,-0.1945,-0.1951,-0.189,-0.189,-0.189,0,-0.1926,-0.2005,-0.2041,-0.2088,-0.2099,-0.2099,-0.2127,-0.2122,-0.2107,-0.2087,-0.2081,-0.199,-0.1946,-0.1902,-0.1917,-0.1897,-0.1902,-0.1887,-0.1914,-0.1916,-0.1918,-0.1951,-0.1956,-0.1894,-0.1894,-0.1893,-0.1893,0,-0.2008,-0.2055,-0.2089,-0.2146,-0.2164,-0.219,-0.2197,-0.2198,-0.2181,-0.2157,-0.212,-0.2063,-0.2004,-0.2,-0.1965,-0.1957,-0.1965,-0.1922,-0.1887,-0.1928,-0.1962,-0.1966,-0.19,-0.1899,-0.1897,-0.1896,0,0,-0.2023,-0.2124,-0.2129,-0.2138,-0.2189,-0.2196,-0.2223,-0.2218,-0.2205,-0.2192,-0.2167,-0.2114,-0.2079,-0.2044,-0.2003,-0.1998,-0.2036,-0.198,-0.1977,-0.2013,-0.2045,-0.1977,-0.1975,-0.2001,-0.2001,-0.2001,-0.2081,0,-0.2055,-0.2134,-0.2183,-0.2212,-0.223,-0.2239,-0.2249,-0.2243,-0.223,-0.2208,-0.2164,-0.2122,-0.21,-0.207,-0.2065,-0.2028,-0.2042,-0.2021,-0.1999,-0.1999,-0.1931,-0.1973,-0.1789,-0.1836,-0.2085,-0.2085,-0.2086,0,-0.2099,-0.2137,-0.2187,-0.2204,-0.2214,-0.2229,-0.2213,-0.2226,-0.2213,-0.2199,-0.2173,-0.2144,-0.2129,-0.2101,-0.2091,-0.2083,-0.2075,-0.2061,-0.2062,-0.1962,-0.1935,-0.1824,-0.1832,-0.2091,-0.2091,-0.209,-0.209,0,-0.205,-0.212,-0.2147,-0.2161,-0.2201,-0.22,-0.2205,-0.2204,-0.2206,-0.219,-0.2196,-0.2164,-0.2158,-0.2136,-0.2141,-0.2111,-0.2149,-0.2092,-0.2033,-0.2031,-0.1846,-0.1826,-0.2084,-0.2084,-0.2084,-0.2084,-0.2083,0,-0.2048,-0.2056,-0.2118,-0.2125,-0.2115,-0.2155,-0.2144,-0.2147,-0.2166,-0.2179,-0.2179,-0.2198,-0.2166,-0.2192,-0.217,-0.2138,-0.2176,-0.2047,-0.2034,-0.1876,-0.1859,-0.2039,-0.2032,-0.2087,-0.2086,-0.2085,-0.2085,0,-0.199,-0.2046,-0.2057,-0.2094,-0.2096,-0.208,-0.2113,-0.2124,-0.2145,-0.2174,-0.2179,-0.223,-0.2257,-0.2256,-0.2241,-0.2173,-0.2143,-0.2125,-0.1976,-0.194,-0.2034,-0.2031,-0.2035,-0.2033,-0.2031,-0.2029,-0.2028,0,-0.1973,-0.1977,-0.2015,-0.2021,-0.2037,-0.2033,-0.2052,-0.2088,-0.2127,-0.2203,-0.2235,-0.2278,-0.2246,-0.2229,-0.2164,-0.2106,-0.2163,-0.1894,-0.1762,-0.2036,-0.2023,-0.2023,-0.2022,-0.1587,-0.1582,-0.1579,-0.1575,0,-0.1905,-0.1925,-0.1946,-0.1955,-0.1973,-0.1982,-0.2019,-0.2015,-0.2091,-0.21,-0.2119,-0.2081,-0.2124,-0.1956,-0.1924,-0.1868,-0.1874,-0.1809,-0.2126,-0.1617,-0.1615,-0.1603,-0.1616,-0.1541,-0.1544,-0.1547,-0.1549,-0.155,-0.1842,-0.1841,-0.187,-0.1866,-0.1886,-0.1864,-0.1806,-0.187,-0.1829,-0.1806,-0.1923,-0.1819,-0.1842,-0.1646,-0.16,-0.1577,-0.1679,-0.1545,-0.1556,-0.1572,-0.1493,-0.1487,-0.1379,-0.1381,-0.1383,-0.1385,-0.1387,0,-0.174,-0.1759,-0.1774,-0.1739,-0.1689,-0.1749,-0.1746,-0.1673,-0.1554,-0.1605,-0.1549,-0.1377,-0.1254,-0.1329,-0.1213,-0.1168,-0.1154,-0.1123,-0.1085,-0.1118,-0.1149,-0.1049,-0.0817,-0.0815,-0.0814,-0.0813,0,0,-0.1686,-0.1669,-0.1683,-0.1537,-0.15,-0.1392,-0.1336,-0.1271,-0.1256,-0.1119,-0.1075,-0.1159,-0.1216,-0.1,-0.0964,-0.0866,-0.0983,-0.0826,-0.1276,-0.1261,-0.1289,-0.1379,-0.1261,0,0,0,0,0]},{"header":{"parameterUnit":"m.s-1","parameterCategory":2,"la1":30.2991,"la2":30.254,"lo1":-89.0895,"lo2":-89.0444,"dy":0.0017,"dx":0.0017,"nx":28,"ny":28,"refTime":"2024-08-22T03:00:00:Z","depth":"2","parameterNumber":3,"parameterNumberName":"V-component_of_CURRENTS"},"data":[0,0,0,0,0,0,0,0,0,0,0,0,0,0,0,0,0,0,0,0,0,0,0,0,0,0,0,0,0,0,0,0,0,0,0,0,0,0,0,0,0,0,0,0,0,0,0,0,0,0,0,0,0,0,0,0,0,0,-0.0207,-0.0206,0,-0.0177,-0.0177,-0.0176,-0.0189,-0.019,-0.0191,-0.0192,-0.0097,-0.0094,-0.0091,0,0,0,0,0,0,0,0,0,0,0,0,0,-0.0144,-0.0145,-0.0207,-0.0206,-0.0206,-0.0177,-0.0177,-0.0176,-0.0189,-0.019,-0.0191,-0.0192,-0.0098,-0.0094,-0.009,0,0,0,0,0,0,0,0,0,0,0,0,0,-0.0147,-0.0146,-0.0207,-0.021,-0.021,-0.0177,-0.0177,-0.0176,-0.0189,-0.019,-0.0192,-0.0193,-0.01,-0.0095,-0.009,-0.0033,0,0,-0.0075,-0.0072,0,0,0,0,0,0,0,0,-0.0147,-0.0149,-0.021,-0.021,-0.021,-0.019,-0.012,-0.0126,-0.0189,-0.0195,-0.0192,-0.0193,-0.0122,-0.0115,-0.0106,-0.0029,-0.0025,-0.0074,-0.0071,-0.0069,-0.0068,0,0,0,0,0,0,0,-0.0147,-0.015,-0.0194,-0.021,-0.021,-0.0169,-0.0172,-0.0121,-0.0149,-0.0195,-0.0196,-0.0195,-0.0122,-0.0111,-0.0103,-0.0023,-0.0074,-0.007,-0.0067,-0.0065,0.0082,0.0083,0,0,0,0,0,0,-0.0159,-0.0151,-0.0194,-0.0193,-0.0183,-0.017,-0.0173,-0.0194,-0.0151,-0.0147,-0.0194,-0.0196,-0.0118,-0.0109,-0.01,-0.0055,-0.0069,-0.0064,-0.0061,0.0081,0.0082,0.0083,0,0,0,0,0,0,-0.0159,-0.0165,-0.0196,-0.017,-0.0172,-0.017,-0.0193,-0.0192,-0.0205,-0.0152,-0.0146,-0.0211,-0.0119,-0.0107,-0.0066,-0.005,-0.0062,-0.0058,0.008,0.0081,0.0083,0.0052,0,0,0,0,0,0,-0.0157,-0.0165,-0.0188,-0.0172,-0.0174,-0.0191,-0.0192,-0.0191,-0.0202,-0.0205,-0.0163,-0.0155,-0.0119,-0.0074,-0.0061,-0.0044,-0.0054,0.0079,0.008,0.0082,0.0052,0.0052,0.0052,0,0,0,0,0,-0.0155,-0.0191,-0.019,-0.0195,-0.0206,-0.0192,-0.0189,-0.0189,-0.0202,-0.0206,-0.0176,-0.0157,-0.0054,-0.0069,-0.0055,-0.0035,0.0078,0.008,0.0082,0.0051,0.0052,0.0052,0,0,0,0,0,0,-0.0172,-0.0195,-0.0194,-0.0234,-0.0217,-0.0195,-0.0211,-0.0201,-0.0182,-0.0193,-0.0144,-0.0132,-0.0089,-0.0057,-0.0075,0.0013,0.0015,0.002,-0.0013,-0.0012,-0.0012,-0.0029,-0.005,0,0,0,0,0,-0.0186,-0.0227,-0.0214,-0.0244,-0.0248,-0.023,-0.0228,-0.0223,-0.0201,-0.0197,-0.0161,-0.0118,-0.0063,-0.0039,0.001,0.0058,0.0074,0.0081,0.0081,0.0081,0.0078,0.011,0.0112,0.009,0.009,0.009,0,0,-0.0199,-0.0218,-0.024,-0.0251,-0.0249,-0.0244,-0.0234,-0.0243,-0.0222,-0.0185,-0.0159,-0.0117,-0.005,0.0003,0.0025,0.0027,0.0096,0.0083,0.0083,0.008,0.0112,0.0114,0.0116,0.0091,0.0091,0.0091,0,0,-0.0245,-0.0267,-0.0314,-0.0306,-0.0308,-0.0276,-0.0284,-0.0264,-0.0247,-0.0208,-0.017,-0.0124,-0.0052,0.0006,0.0045,0.0077,0.0094,0.0091,0.0083,0.0113,0.0115,0.0117,0.0134,0.0137,0.0093,0.0093,0.0093,0,-0.0258,-0.0317,-0.0316,-0.0345,-0.0339,-0.0296,-0.031,-0.027,-0.023,-0.0204,-0.0209,-0.0096,-0.0045,0.0039,0.0051,0.0078,0.0087,0.0073,0.0111,0.0113,0.0116,0.0133,0.0137,0.0092,0.0092,0.0092,0.0092,0,-0.0326,-0.0369,-0.0395,-0.0412,-0.039,-0.0403,-0.034,-0.0307,-0.0277,-0.0232,-0.0165,-0.0096,-0.0033,0.0001,0.0038,0.0093,0.0091,0.0103,0.0103,0.0115,0.0134,0.0139,0.009,0.009,0.0091,0.0091,0,0,-0.0374,-0.0435,-0.0446,-0.0467,-0.0434,-0.0423,-0.0367,-0.0303,-0.0278,-0.0216,-0.0181,-0.0073,-0.005,-0.0004,0.0051,0.0087,0.0115,0.0095,0.0097,0.0099,0.0165,0.0209,0.0219,0.0123,0.0124,0.0125,0.0169,0,-0.043,-0.0513,-0.0504,-0.0532,-0.0561,-0.0484,-0.0432,-0.0357,-0.0291,-0.0239,-0.0146,-0.0097,-0.0044,-0.0027,0.0024,0.0094,0.0126,0.01,0.0165,0.0167,0.0194,0.0226,0.0192,0.0232,0.0174,0.0175,0.0175,0,-0.0496,-0.0548,-0.061,-0.061,-0.0611,-0.0597,-0.0511,-0.0458,-0.0342,-0.0297,-0.022,-0.0157,-0.0064,-0.0046,0.0078,0.0053,0.0103,0.015,0.0153,0.0208,0.0221,0.0215,0.0243,0.0183,0.0183,0.0182,0.0182,0,-0.0542,-0.0608,-0.0663,-0.0669,-0.0653,-0.0643,-0.0604,-0.0493,-0.0442,-0.0345,-0.0312,-0.0198,-0.0152,-0.0063,0.0071,0.0056,0.0191,0.0182,0.027,0.0273,0.0266,0.0268,0.0248,0.0248,0.0248,0.0248,0.0248,0,-0.0598,-0.0645,-0.0707,-0.0739,-0.0769,-0.0721,-0.0702,-0.0635,-0.0545,-0.0487,-0.0366,-0.0299,-0.0159,-0.0046,0.0053,0.0197,0.0182,0.0276,0.0295,0.0256,0.0256,0.0232,0.0229,0.025,0.0249,0.0249,0.0249,0,-0.0631,-0.0681,-0.0752,-0.0791,-0.0802,-0.0819,-0.0779,-0.0754,-0.0659,-0.0584,-0.0559,-0.0385,-0.0224,-0.0061,0.0093,0.0174,0.0302,0.0351,0.0298,0.0311,0.0354,0.035,0.0425,0.0427,0.0428,0.043,0.0431,0,-0.0658,-0.0708,-0.0802,-0.0851,-0.0882,-0.0902,-0.09,-0.0821,-0.078,-0.0618,-0.0585,-0.0414,-0.0278,-0.0013,0.0178,0.0362,0.0374,0.0418,0.0396,0.0365,0.0376,0.0369,0.0362,0.0365,0.0366,0.0366,0.0367,0,-0.0693,-0.0736,-0.0796,-0.091,-0.0961,-0.0982,-0.0978,-0.0956,-0.0836,-0.0768,-0.0631,-0.0523,-0.0239,-0.0015,0.0245,0.0345,0.0388,0.0434,0.0424,0.0336,0.0316,0.0324,0.0318,0.0371,0.0371,0.037,0.037,0.037,-0.0711,-0.0768,-0.0861,-0.0956,-0.1013,-0.1035,-0.1032,-0.1001,-0.0935,-0.0792,-0.0683,-0.0494,-0.0271,0.0111,0.0293,0.0467,0.0453,0.0469,0.0464,0.0459,0.0455,0.0441,0.0517,0.0517,0.0518,0.0518,0.0518,0,-0.072,-0.0798,-0.0895,-0.0992,-0.1038,-0.1068,-0.1056,-0.1023,-0.0955,-0.0812,-0.0685,-0.0421,-0.0162,0.0096,0.0363,0.0496,0.0463,0.0521,0.045,0.0444,0.044,0.0432,0.0489,0.049,0.049,0.049,0,0,-0.073,-0.0821,-0.088,-0.0981,-0.1043,-0.1081,-0.1071,-0.1025,-0.0921,-0.0779,-0.0625,-0.0426,-0.0137,0.0054,0.0243,0.0381,0.0367,0.0383,0.0389,0.0276,0.027,0.0392,0.0373,0,0,0,0,0]}],[{"header":{"parameterUnit":"m.s-1","parameterCategory":2,"la1":30.2991,"la2":30.254,"lo1":-89.0895,"lo2":-89.0444,"dy":0.0017,"dx":0.0017,"nx":28,"ny":28,"refTime":"2024-08-22T03:00:00:Z","depth":"4","parameterNumber":2,"parameterNumberName":"U-component_of_CURRENTS"},"data":[0,0,0,0,0,0,0,0,0,0,0,0,0,0,0,0,0,0,0,0,0,0,0,0,0,0,0,0,0,0,0,0,0,0,0,0,0,0,0,0,0,0,0,0,0,0,0,0,0,0,0,0,0,0,0,0,0,0,-0.0704,-0.0705,0,-0.0755,-0.0756,-0.0757,-0.0824,-0.0824,-0.0825,-0.0825,-0.093,-0.0933,-0.0935,0,0,0,0,0,0,0,0,0,0,0,0,0,-0.0691,-0.0691,-0.0704,-0.0705,-0.0705,-0.0754,-0.0756,-0.0757,-0.0824,-0.0824,-0.0825,-0.0826,-0.093,-0.0932,-0.0935,0,0,0,0,0,0,0,0,0,0,0,0,0,-0.072,-0.0691,-0.0704,-0.0739,-0.0742,-0.0754,-0.0756,-0.0757,-0.0824,-0.0824,-0.0825,-0.0826,-0.0929,-0.0932,-0.0936,-0.0941,0,0,-0.0946,-0.0948,0,0,0,0,0,0,0,0,-0.0718,-0.0721,-0.0734,-0.0737,-0.074,-0.0778,-0.0789,-0.0819,-0.0823,-0.0799,-0.0825,-0.0826,-0.088,-0.0887,-0.0903,-0.0946,-0.095,-0.0946,-0.0948,-0.095,-0.0951,0,0,0,0,0,0,0,-0.0716,-0.072,-0.0731,-0.0734,-0.0738,-0.076,-0.0766,-0.0795,-0.084,-0.0802,-0.0805,-0.08,-0.0883,-0.09,-0.0906,-0.0952,-0.0946,-0.0949,-0.0951,-0.0953,-0.1134,-0.1137,0,0,0,0,0,0,-0.0695,-0.0717,-0.0729,-0.0732,-0.0724,-0.0759,-0.0766,-0.077,-0.0839,-0.0848,-0.08,-0.0803,-0.0893,-0.0902,-0.091,-0.1056,-0.095,-0.0953,-0.0955,-0.1131,-0.1135,-0.1138,0,0,0,0,0,0,-0.0695,-0.0696,-0.0727,-0.072,-0.0725,-0.0758,-0.0763,-0.0771,-0.0808,-0.0836,-0.0847,-0.083,-0.0894,-0.0905,-0.0968,-0.1055,-0.0955,-0.0958,-0.1128,-0.1132,-0.1136,-0.1261,0,0,0,0,0,0,-0.0695,-0.0696,-0.0705,-0.0719,-0.0724,-0.0757,-0.0762,-0.0771,-0.0799,-0.0805,-0.0865,-0.0874,-0.0896,-0.0963,-0.0971,-0.1058,-0.0961,-0.1125,-0.113,-0.1135,-0.1253,-0.1268,-0.1282,0,0,0,0,0,-0.0694,-0.0695,-0.0706,-0.0707,-0.0732,-0.0758,-0.0765,-0.0794,-0.08,-0.0829,-0.087,-0.0874,-0.1003,-0.0967,-0.0977,-0.1067,-0.1122,-0.1129,-0.1135,-0.1247,-0.1265,-0.1281,0,0,0,0,0,0,-0.0695,-0.0701,-0.0714,-0.0718,-0.0747,-0.0767,-0.0784,-0.0802,-0.0855,-0.0865,-0.0895,-0.0909,-0.0994,-0.1004,-0.0964,-0.1133,-0.1069,-0.1077,-0.1151,-0.1168,-0.1183,-0.1155,-0.0963,0,0,0,0,0,-0.0696,-0.0702,-0.0719,-0.0728,-0.0739,-0.0766,-0.0781,-0.0805,-0.084,-0.0865,-0.0916,-0.0969,-0.1023,-0.1072,-0.1107,-0.1197,-0.115,-0.1264,-0.1278,-0.129,-0.1275,-0.1282,-0.1295,-0.1158,-0.1158,-0.1158,0,0,-0.0702,-0.0701,-0.0709,-0.0729,-0.075,-0.0783,-0.0781,-0.081,-0.0839,-0.0866,-0.0945,-0.1006,-0.1049,-0.1153,-0.1196,-0.1181,-0.1305,-0.1298,-0.1309,-0.1286,-0.129,-0.1303,-0.1314,-0.1162,-0.1162,-0.1161,0,0,-0.0706,-0.0714,-0.0725,-0.0751,-0.0778,-0.0799,-0.0811,-0.086,-0.0883,-0.0965,-0.0993,-0.1093,-0.1191,-0.1248,-0.1283,-0.1389,-0.136,-0.1436,-0.1518,-0.1527,-0.1538,-0.1546,-0.1497,-0.15,-0.147,-0.147,-0.147,0,-0.0718,-0.0734,-0.0736,-0.0758,-0.078,-0.081,-0.0843,-0.0867,-0.094,-0.0977,-0.1005,-0.1184,-0.1228,-0.1343,-0.1411,-0.1422,-0.1407,-0.1453,-0.1544,-0.1552,-0.1558,-0.1506,-0.1507,-0.1477,-0.1476,-0.1475,-0.1475,0,-0.0733,-0.0762,-0.077,-0.0812,-0.0834,-0.0872,-0.0896,-0.0949,-0.1002,-0.1054,-0.1182,-0.1266,-0.1394,-0.1442,-0.1473,-0.1581,-0.1545,-0.1539,-0.1495,-0.1579,-0.1519,-0.1518,-0.1487,-0.1484,-0.1482,-0.148,0,0,-0.0731,-0.0778,-0.0788,-0.0826,-0.0871,-0.0899,-0.0936,-0.1002,-0.1055,-0.1168,-0.1265,-0.1408,-0.1503,-0.1546,-0.1618,-0.165,-0.1703,-0.1651,-0.1649,-0.1591,-0.1699,-0.1609,-0.1599,-0.1737,-0.1738,-0.1739,-0.1633,0,-0.076,-0.0813,-0.0822,-0.09,-0.0936,-0.0971,-0.1016,-0.1076,-0.1139,-0.1247,-0.1344,-0.1468,-0.1524,-0.1635,-0.1686,-0.1702,-0.1711,-0.1729,-0.1633,-0.1628,-0.1531,-0.1599,-0.1742,-0.1632,-0.1632,-0.1632,-0.1632,0,-0.0767,-0.0812,-0.0877,-0.096,-0.0981,-0.1037,-0.1121,-0.1189,-0.1299,-0.1343,-0.1487,-0.1561,-0.169,-0.17,-0.1752,-0.1778,-0.1754,-0.1727,-0.1723,-0.1588,-0.1539,-0.1533,-0.163,-0.163,-0.163,-0.1631,-0.1631,0,-0.0759,-0.0845,-0.0903,-0.0934,-0.1033,-0.1078,-0.1166,-0.1252,-0.1281,-0.1442,-0.1473,-0.1636,-0.1706,-0.1741,-0.1736,-0.1772,-0.1708,-0.1738,-0.16,-0.159,-0.1642,-0.1634,-0.1712,-0.1713,-0.1713,-0.1713,-0.1713,0,-0.0766,-0.0818,-0.0922,-0.0967,-0.1009,-0.1137,-0.1211,-0.1271,-0.1403,-0.1441,-0.1577,-0.159,-0.172,-0.1709,-0.1726,-0.1654,-0.1703,-0.16,-0.1569,-0.1696,-0.1696,-0.164,-0.1633,-0.1709,-0.171,-0.1711,-0.1711,0,-0.0719,-0.0794,-0.0869,-0.1002,-0.0991,-0.1072,-0.1155,-0.1244,-0.1364,-0.1409,-0.1461,-0.1549,-0.1574,-0.1605,-0.1611,-0.159,-0.1551,-0.1485,-0.1567,-0.1543,-0.1428,-0.143,-0.1369,-0.1365,-0.1362,-0.1359,-0.1357,0,-0.07,-0.0737,-0.083,-0.0846,-0.0897,-0.0992,-0.1027,-0.1169,-0.1239,-0.1342,-0.1355,-0.1404,-0.1445,-0.1369,-0.144,-0.1427,-0.1409,-0.1358,-0.1463,-0.1423,-0.1399,-0.1405,-0.1411,-0.1352,-0.1351,-0.135,-0.1349,0,-0.0653,-0.07,-0.0754,-0.0781,-0.0817,-0.0835,-0.093,-0.0934,-0.113,-0.1178,-0.1221,-0.1258,-0.1247,-0.1311,-0.1273,-0.1271,-0.1412,-0.1326,-0.1335,-0.1433,-0.1402,-0.1383,-0.1392,-0.1338,-0.134,-0.1341,-0.1342,0,-0.0599,-0.0613,-0.0691,-0.0695,-0.0732,-0.0752,-0.0782,-0.088,-0.0937,-0.1082,-0.1065,-0.1143,-0.1213,-0.1218,-0.1195,-0.1194,-0.1221,-0.1207,-0.1223,-0.1236,-0.1252,-0.1197,-0.1038,0,0,0,0,0,-0.0551,-0.0559,-0.0591,-0.0624,-0.069,-0.0687,-0.0749,-0.0827,-0.0922,-0.0926,-0.1018,-0.1025,-0.1059,-0.11,-0.1082,-0.1145,-0.1215,-0.1118,-0.1205,-0.1277,-0.129,-0.1327,0,0,0,0,0,0,-0.0523,-0.0547,-0.0568,-0.0578,-0.0595,-0.0635,-0.0676,-0.0733,-0.0765,-0.0863,-0.0893,-0.0956,-0.1006,-0.1051,-0.1056,-0.1066,-0.1102,-0.1164,-0.1162,-0.127,-0.1281,-0.1292,-0.1335,0,0,0,0,0]},{"header":{"parameterUnit":"m.s-1","parameterCategory":2,"la1":30.2991,"la2":30.254,"lo1":-89.0895,"lo2":-89.0444,"dy":0.0017,"dx":0.0017,"nx":28,"ny":28,"refTime":"2024-08-22T03:00:00:Z","depth":"4","parameterNumber":3,"parameterNumberName":"V-component_of_CURRENTS"},"data":[0,0,0,0,0,0,0,0,0,0,0,0,0,0,0,0,0,0,0,0,0,0,0,0,0,0,0,0,0,0,0,0,0,0,0,0,0,0,0,0,0,0,0,0,0,0,0,0,0,0,0,0,0,0,0,0,0,0,-0.007,-0.0071,0,-0.0078,-0.0078,-0.0078,-0.0041,-0.0041,-0.004,-0.0039,-0.0013,-0.0013,-0.0013,0,0,0,0,0,0,0,0,0,0,0,0,0,-0.0018,-0.0019,-0.007,-0.0071,-0.0071,-0.0078,-0.0078,-0.0078,-0.0042,-0.004,-0.0039,-0.0038,-0.0012,-0.0013,-0.0013,0,0,0,0,0,0,0,0,0,0,0,0,0,-0.0034,-0.002,-0.007,-0.0054,-0.0053,-0.0078,-0.0078,-0.0078,-0.0042,-0.004,-0.0039,-0.0038,-0.0012,-0.0013,-0.0013,-0.0045,0,0,-0.0014,-0.0014,0,0,0,0,0,0,0,0,-0.0033,-0.0036,-0.0056,-0.0055,-0.0054,-0.0058,-0.005,-0.0066,-0.0042,-0.0045,-0.0039,-0.0037,-0.0026,-0.0025,-0.0029,-0.0044,-0.0042,-0.0014,-0.0014,-0.0014,-0.0015,0,0,0,0,0,0,0,-0.0032,-0.0035,-0.0073,-0.0057,-0.0055,-0.0044,-0.0045,-0.0053,-0.0043,-0.0045,-0.0042,-0.0045,-0.0025,-0.0029,-0.0028,-0.0042,-0.0014,-0.0014,-0.0015,-0.0015,-0.0036,-0.0036,0,0,0,0,0,0,-0.0035,-0.0035,-0.0072,-0.0073,-0.0041,-0.0047,-0.0047,-0.0058,-0.0043,-0.004,-0.0046,-0.0043,-0.0029,-0.0028,-0.0027,-0.0006,-0.0014,-0.0015,-0.0015,-0.0035,-0.0036,-0.0036,0,0,0,0,0,0,-0.0034,-0.0039,-0.0072,-0.0054,-0.0057,-0.0049,-0.0061,-0.0058,-0.0055,-0.0045,-0.0041,-0.0044,-0.0028,-0.0027,-0.003,-0.0007,-0.0015,-0.0015,-0.0035,-0.0036,-0.0036,-0.0001,0,0,0,0,0,0,-0.0033,-0.0039,-0.0044,-0.0055,-0.0059,-0.0084,-0.0062,-0.006,-0.0059,-0.0055,-0.0042,-0.0038,-0.0027,-0.0029,-0.003,-0.0007,-0.0016,-0.0035,-0.0035,-0.0036,-0.0001,0.0,0.0001,0,0,0,0,0,-0.0031,-0.0045,-0.0045,-0.0049,-0.0068,-0.0085,-0.0086,-0.0074,-0.0061,-0.0064,-0.0053,-0.0038,-0.0033,-0.0031,-0.0031,-0.0008,-0.0034,-0.0035,-0.0036,-0.0002,-0.0,0.0001,0,0,0,0,0,0,-0.0028,-0.0043,-0.0043,-0.0061,-0.0072,-0.0079,-0.0083,-0.0077,-0.0074,-0.0066,-0.0051,-0.0048,-0.005,-0.0042,-0.0039,-0.0019,-0.0029,-0.003,-0.0003,-0.0001,0.0,0.0003,-0.0016,0,0,0,0,0,-0.0032,-0.0044,-0.0058,-0.0073,-0.008,-0.0083,-0.0087,-0.0081,-0.0082,-0.0078,-0.0066,-0.0056,-0.0058,-0.0039,-0.0052,-0.0036,-0.0019,-0.0021,-0.002,-0.0018,-0.0019,0.0054,0.0063,-0.0039,-0.0039,-0.0039,0,0,-0.0036,-0.0046,-0.0053,-0.0073,-0.008,-0.0096,-0.0081,-0.0091,-0.0104,-0.0078,-0.0083,-0.0069,-0.0064,-0.0052,-0.0047,-0.0031,0.001,-0.0019,-0.0018,-0.0019,0.0054,0.0065,0.0074,-0.0039,-0.0039,-0.0039,0,0,-0.0051,-0.0061,-0.0074,-0.0087,-0.01,-0.0104,-0.0107,-0.0112,-0.0113,-0.0122,-0.0105,-0.0079,-0.0079,-0.0054,-0.0047,-0.0051,-0.0008,-0.0039,0.0004,0.0075,0.0085,0.0094,0.0097,0.0106,-0.0008,-0.0008,-0.0008,0,-0.0051,-0.0075,-0.0081,-0.0099,-0.0114,-0.0108,-0.0129,-0.0138,-0.014,-0.014,-0.0124,-0.0097,-0.0086,-0.0056,-0.0036,-0.0046,-0.0006,0.0004,0.0081,0.009,0.0099,0.0101,0.011,-0.0006,-0.0006,-0.0006,-0.0007,0,-0.0079,-0.0097,-0.0109,-0.013,-0.0146,-0.0163,-0.0179,-0.0179,-0.0171,-0.0171,-0.0154,-0.0121,-0.008,-0.007,-0.0045,0.003,0.0033,0.0055,0.0086,0.0113,0.011,0.012,-0.0004,-0.0004,-0.0005,-0.0005,0,0,-0.0086,-0.0119,-0.0124,-0.0146,-0.0165,-0.0187,-0.0201,-0.0216,-0.0222,-0.0194,-0.0173,-0.0143,-0.0081,-0.0067,-0.0014,0.0063,0.0156,0.0118,0.0121,0.0135,0.0295,0.0229,0.0233,0.0232,0.0234,0.0237,0.0257,0,-0.0106,-0.015,-0.0156,-0.02,-0.023,-0.0228,-0.0247,-0.0256,-0.025,-0.0224,-0.0169,-0.0146,-0.0094,-0.004,0.0054,0.014,0.019,0.0145,0.0253,0.0254,0.0208,0.0245,0.0245,0.0265,0.0267,0.0269,0.027,0,-0.0136,-0.0163,-0.021,-0.0248,-0.0259,-0.0278,-0.0299,-0.0311,-0.0279,-0.0262,-0.0186,-0.0141,-0.0016,0.0017,0.019,0.0183,0.024,0.0285,0.0288,0.0225,0.0209,0.0239,0.0287,0.0286,0.0285,0.0283,0.0282,0,-0.0161,-0.0205,-0.0245,-0.0262,-0.0297,-0.031,-0.032,-0.0321,-0.0334,-0.0267,-0.0246,-0.0107,-0.0037,0.0107,0.0209,0.0244,0.036,0.0409,0.0365,0.0358,0.0396,0.0387,0.0483,0.0483,0.0483,0.0483,0.0483,0,-0.0188,-0.0221,-0.0263,-0.0287,-0.0331,-0.0345,-0.0376,-0.0361,-0.0338,-0.0343,-0.0245,-0.0209,0.0002,0.0088,0.0211,0.0311,0.0363,0.0368,0.0377,0.0401,0.0392,0.0401,0.0391,0.0484,0.0484,0.0483,0.0483,0,-0.0208,-0.0232,-0.0286,-0.0331,-0.0344,-0.0378,-0.0412,-0.0432,-0.0406,-0.039,-0.0361,-0.0257,-0.0122,0.0003,0.019,0.0267,0.0378,0.0362,0.0316,0.032,0.033,0.0322,0.0391,0.0389,0.0387,0.0386,0.0385,0,-0.0219,-0.0249,-0.0317,-0.0351,-0.0371,-0.0419,-0.0447,-0.045,-0.0463,-0.0433,-0.0414,-0.0324,-0.024,-0.0049,0.0107,0.0283,0.0285,0.0319,0.04,0.0328,0.033,0.0323,0.0317,0.0383,0.0382,0.0382,0.0382,0,-0.0235,-0.0261,-0.0299,-0.037,-0.0419,-0.0478,-0.0511,-0.0527,-0.0522,-0.0505,-0.0452,-0.0355,-0.0251,-0.006,0.0016,0.0153,0.0328,0.0305,0.0311,0.0388,0.0319,0.0321,0.0316,0.0376,0.0377,0.0378,0.0378,0,-0.0234,-0.0267,-0.0316,-0.0377,-0.0451,-0.0516,-0.054,-0.0551,-0.0558,-0.0514,-0.05,-0.0383,-0.0298,-0.0137,-0.0036,0.0074,0.0144,0.0202,0.0215,0.0223,0.0174,0.0062,0.0053,0,0,0,0,0,-0.0221,-0.025,-0.0316,-0.0397,-0.0483,-0.0519,-0.0569,-0.0586,-0.0584,-0.055,-0.0523,-0.0424,-0.0261,-0.0186,-0.008,-0.0044,0.0157,0.0082,0.023,0.0348,0.0354,0.0322,0,0,0,0,0,0,-0.021,-0.0259,-0.0302,-0.0404,-0.0463,-0.0553,-0.059,-0.0594,-0.0567,-0.0542,-0.0452,-0.0398,-0.0234,-0.0313,-0.0075,-0.0043,0.0064,0.0165,0.0167,0.0345,0.035,0.0355,0.0324,0,0,0,0,0]}]]